星链-11389 (STARLINK-11389)

导读

STARLINK-11389是美国太空探索技术公司SpaceX星链星座的一员,于2024年11月25日发射入轨。星链星座旨在构建全球卫星互联网,为偏远地区、海洋空域等提供高速网络接入服务,该卫星是星链星座扩容的组成部分,进一步完善了星座的覆盖范围与服务能力。

Basic Information
目录编号:
62091
目录名称:
STARLINK-11389
国际标识:
2024-220D
轨道中心:
EARTH
卫星名称:
星链-11389
卫星全名:
星链-11389 (STARLINK-11389)
卫星状态:
在轨 (已飞行655 天)
发射日期:
2024-11-25 UTC
国别 :
美国 (US)
星等 :
--
This satellite is enrolled in the Space Conjunction Data Service (SCDS) and the current flight risk assessment level is: High Risk
Orbit Information
数据来源 国际轨道数据
星历时间: 2026-09-09T17:29:21+0800
2天前
查看轨道信息
半长轴: 6734.511km
偏心率: 0.0002972
轨道倾角: 43.001°
近地点辐角 286.401°
升交点赤经 15.906°
平近点角 73.653°
近地点: 354.372km
远地点: 358.376km
周期: 91.668分钟
每日圈数: 15.708827
Detailed Information
固有亮度:
5
最大亮度:
2.5
卫星平台:
Starlink V1.0
覆盖范围:
全球
运营商:
太空探索技术公司
运营商所在国:
美国
制造商(研发单位):
太空探索技术公司
制造商所在国:
美国
使用方式:
暂无
Satellite Introduction
Starlink 计划是 SpaceX 推出的全球卫星互联网项目,通过发射低轨道卫星,为全球尤其是偏远地区提供高速、低延迟的互联网服务。自 2019 年起,Starlink 已部署数千颗卫星,旨在缩小全球数字鸿沟,推动互联网普及。该项目还为军事、航空等行业提供通信支持,带来广泛经济效益。
2D Orbit Map
3D Orbit Map
Orbit Altitude Analysis Chart
Orbit Inclination Analysis Chart
Orbit Comprehensive Analysis Chart
View Comprehensive Chart
Conjunction Data List
Event ID Objects TCA Miss Dist (km) Collision Risk Probability Collision Risk Index (CRI) Action
CDM_260913-012806-209106-412721
2026-09-13T
01:28:16+0000
0.535 km
远距离
1.008958E-4 高风险 0.75
CDM_260913-051706-209106-412721
2026-09-13T
05:17:02+0000
1.399 km
极远距离
4.583348E-6 低风险 0.48
CDM_260913-040206-177606-209121
2026-09-13T
04:02:20+0000
2.146 km
极远距离
2.315369E-6 低风险 0.42
CDM_260912-003006-209106-407621
2026-09-12T
00:30:30+0000
2.724 km
极远距离
8.091225E-7 极低风险 0.33
Miss Distance Evolution Trend with All Objects
Collision Probability Evolution Trend with All Objects